Time,TemperatureF,DewpointF,PressureIn,WindDirection,WindDirectionDegrees,WindSpeedMPH,WindSpeedGustMPH,Humidity,HourlyPrecipIn,Conditions,Clouds,dailyrainin,SolarRadiationWatts/m^2,SoftwareType,DateUTC
2013-01-27 00:00:00,29.2,27.2,29.83,West,264,4.0,4.0,92,0.00,,,0.00,0,Wunderground v.1.15,2013-01-27 08:00:00,
2013-01-27 00:10:00,29.4,26.8,29.83,West,259,6.0,6.0,90,0.00,,,0.00,0,Wunderground v.1.15,2013-01-27 08:10:00,
2013-01-27 00:20:00,29.9,27.1,29.82,West,267,4.0,4.0,89,0.00,,,0.00,0,Wunderground v.1.15,2013-01-27 08:20:00,
2013-01-27 00:30:00,30.2,26.8,29.82,West,260,1.0,1.0,87,0.00,,,0.00,0,Wunderground v.1.15,2013-01-27 08:30:00,
2013-01-27 00:40:00,30.1,26.7,29.82,West,260,5.0,5.0,87,0.00,,,0.00,0,Wunderground v.1.15,2013-01-27 08:40:00,
2013-01-27 00:50:00,30.4,26.7,29.82,WSW,252,6.0,6.0,86,0.00,,,0.00,0,Wunderground v.1.15,2013-01-27 08:50:00,
2013-01-27 01:00:00,30.8,26.8,29.82,West,259,7.0,7.0,85,0.00,,,0.00,0,Wunderground v.1.15,2013-01-27 09:00:00,
2013-01-27 01:10:00,30.9,26.9,29.82,WSW,238,2.0,2.0,85,0.00,,,0.00,0,Wunderground v.1.15,2013-01-27 09:10:00,
2013-01-27 01:20:00,30.3,26.3,29.83,WSW,237,1.0,1.0,85,0.00,,,0.00,0,Wunderground v.1.15,2013-01-27 09:20:00,
2013-01-27 01:30:00,29.9,25.9,29.82,SW,235,0.0,0.0,85,0.00,,,0.00,0,Wunderground v.1.15,2013-01-27 09:30:00,
2013-01-27 01:40:00,31.0,26.4,29.82,West,273,4.0,4.0,83,0.00,,,0.00,0,Wunderground v.1.15,2013-01-27 09:40:00,
2013-01-27 01:50:00,30.4,25.9,29.83,WSW,256,4.0,4.0,83,0.00,,,0.00,0,Wunderground v.1.15,2013-01-27 09:50:00,
2013-01-27 02:00:00,31.2,26.0,29.82,WSW,252,5.0,5.0,81,0.00,,,0.00,0,Wunderground v.1.15,2013-01-27 10:00:00,
2013-01-27 02:15:00,31.6,26.4,29.83,NW,314,3.0,3.0,81,0.00,,,0.00,0,Wunderground v.1.15,2013-01-27 10:15:00,
2013-01-27 02:20:00,31.6,26.4,29.83,WSW,248,0.0,3.0,81,0.00,,,0.00,0,Wunderground v.1.15,2013-01-27 10:20:00,
2013-01-27 02:30:00,31.5,26.0,29.83,WSW,254,3.0,3.0,80,0.00,,,0.00,0,Wunderground v.1.15,2013-01-27 10:30:00,
2013-01-27 02:40:00,31.6,26.4,29.83,SSW,200,1.0,3.0,81,0.00,,,0.00,0,Wunderground v.1.15,2013-01-27 10:40:00,
2013-01-27 02:50:00,32.1,26.6,29.83,NW,319,6.0,6.0,80,0.00,,,0.00,0,Wunderground v.1.15,2013-01-27 10:50:00,
2013-01-27 03:05:00,31.6,26.4,29.83,WSW,250,4.0,4.0,81,0.00,,,0.00,0,Wunderground v.1.15,2013-01-27 11:05:00,
2013-01-27 03:10:00,31.8,26.3,29.83,WSW,256,5.0,5.0,80,0.00,,,0.00,0,Wunderground v.1.15,2013-01-27 11:10:00,
2013-01-27 03:20:00,32.0,26.2,29.83,NW,316,3.0,5.0,79,0.00,,,0.00,0,Wunderground v.1.15,2013-01-27 11:20:00,
2013-01-27 03:30:00,32.1,26.3,29.83,North,349,3.0,5.0,79,0.00,,,0.00,0,Wunderground v.1.15,2013-01-27 11:30:00,
2013-01-27 03:40:00,32.0,26.2,29.83,West,262,3.0,3.0,79,0.00,,,0.00,0,Wunderground v.1.15,2013-01-27 11:40:00,
2013-01-27 03:50:00,32.2,26.4,29.83,West,263,4.0,4.0,79,0.00,,,0.00,0,Wunderground v.1.15,2013-01-27 11:50:00,
2013-01-27 04:05:00,32.2,26.4,29.83,WSW,241,8.0,8.0,79,0.00,,,0.00,0,Wunderground v.1.15,2013-01-27 12:05:00,
2013-01-27 04:10:00,32.1,26.3,29.83,West,263,6.0,8.0,79,0.00,,,0.00,0,Wunderground v.1.15,2013-01-27 12:10:00,
2013-01-27 04:20:00,32.3,25.9,29.83,WSW,238,4.0,11.0,77,0.00,,,0.00,0,Wunderground v.1.15,2013-01-27 12:20:00,
2013-01-27 04:30:00,31.9,25.5,29.84,WSW,237,0.0,0.0,77,0.00,,,0.00,0,Wunderground v.1.15,2013-01-27 12:30:00,
2013-01-27 04:45:00,32.0,25.3,29.84,SW,232,0.0,0.0,76,0.00,,,0.00,0,Wunderground v.1.15,2013-01-27 12:45:00,
2013-01-27 04:50:00,31.8,25.1,29.84,SW,232,2.0,2.0,76,0.00,,,0.00,0,Wunderground v.1.15,2013-01-27 12:50:00,
2013-01-27 05:01:00,31.7,25.3,29.84,SSE,156,0.0,0.0,77,0.00,,,0.00,0,Wunderground v.1.15,2013-01-27 13:01:00,
2013-01-27 05:10:00,31.4,25.0,29.84,SSE,156,0.0,0.0,77,0.00,,,0.00,0,Wunderground v.1.15,2013-01-27 13:10:00,
2013-01-27 05:20:00,31.2,25.1,29.84,SSE,156,0.0,0.0,78,0.00,,,0.00,0,Wunderground v.1.15,2013-01-27 13:20:00,
2013-01-27 05:30:00,31.1,25.0,29.83,West,265,0.0,0.0,78,0.00,,,0.00,0,Wunderground v.1.15,2013-01-27 13:30:00,
2013-01-27 05:40:00,31.4,25.3,29.83,WSW,256,6.0,6.0,78,0.00,,,0.00,0,Wunderground v.1.15,2013-01-27 13:40:00,
2013-01-27 05:51:00,32.1,25.4,29.83,WSW,251,2.0,2.0,76,0.00,,,0.00,0,Wunderground v.1.15,2013-01-27 13:51:00,
2013-01-27 06:00:00,32.0,25.6,29.83,SW,230,0.0,0.0,77,0.00,,,0.00,0,Wunderground v.1.15,2013-01-27 14:00:00,
2013-01-27 06:10:00,31.4,25.3,29.84,SSW,203,0.0,0.0,78,0.00,,,0.00,0,Wunderground v.1.15,2013-01-27 14:10:00,
2013-01-27 06:20:00,31.0,25.2,29.84,ENE,70,4.0,4.0,79,0.00,,,0.00,0,Wunderground v.1.15,2013-01-27 14:20:00,
2013-01-27 06:30:00,31.9,25.5,29.84,NNW,342,0.0,0.0,77,0.00,,,0.00,0,Wunderground v.1.15,2013-01-27 14:30:00,
2013-01-27 06:40:00,31.0,25.2,29.84,NNW,342,0.0,0.0,79,0.00,,,0.00,0,Wunderground v.1.15,2013-01-27 14:40:00,
2013-01-27 06:55:00,30.6,25.5,29.84,WSW,241,3.0,3.0,81,0.00,,,0.00,0,Wunderground v.1.15,2013-01-27 14:55:00,
2013-01-27 07:00:00,31.1,25.7,29.84,WSW,249,6.0,6.0,80,0.00,,,0.00,0,Wunderground v.1.15,2013-01-27 15:00:00,
2013-01-27 07:10:00,31.4,26.5,29.84,WSW,238,4.0,4.0,82,0.00,,,0.00,0,Wunderground v.1.15,2013-01-27 15:10:00,
2013-01-27 07:20:00,31.8,27.2,29.84,WSW,258,5.0,5.0,83,0.00,,,0.00,0,Wunderground v.1.15,2013-01-27 15:20:00,
2013-01-27 07:35:00,32.0,27.1,29.85,WSW,258,11.0,11.0,82,0.00,,,0.00,0,Wunderground v.1.15,2013-01-27 15:35:00,
2013-01-27 07:40:00,32.0,26.8,29.85,WNW,283,3.0,11.0,81,0.00,,,0.00,0,Wunderground v.1.15,2013-01-27 15:40:00,
2013-01-27 07:55:00,32.2,26.7,29.85,WSW,253,6.0,6.0,80,0.00,,,0.00,0,Wunderground v.1.15,2013-01-27 15:55:00,
2013-01-27 08:00:00,32.2,26.4,29.85,West,268,7.0,7.0,79,0.00,,,0.00,0,Wunderground v.1.15,2013-01-27 16:00:00,
2013-01-27 08:10:00,32.6,26.2,29.85,WNW,293,5.0,5.0,77,0.00,,,0.00,0,Wunderground v.1.15,2013-01-27 16:10:00,
2013-01-27 08:25:00,32.6,26.5,29.85,SW,235,2.0,2.0,78,0.00,,,0.00,0,Wunderground v.1.15,2013-01-27 16:25:00,
2013-01-27 08:35:00,32.6,26.8,29.86,NW,315,3.0,3.0,79,0.00,,,0.00,0,Wunderground v.1.15,2013-01-27 16:35:00,
2013-01-27 08:40:00,32.8,27.3,29.86,WSW,247,5.0,5.0,80,0.00,,,0.00,0,Wunderground v.1.15,2013-01-27 16:40:00,
2013-01-27 08:50:00,33.4,27.6,29.86,WSW,254,5.0,6.0,79,0.00,,,0.00,0,Wunderground v.1.15,2013-01-27 16:50:00,
2013-01-27 09:00:00,34.0,27.9,29.86,WSW,257,3.0,3.0,78,0.00,,,0.00,0,Wunderground v.1.15,2013-01-27 17:00:00,
2013-01-27 09:15:00,34.5,28.0,29.87,SW,228,4.0,4.0,77,0.00,,,0.00,0,Wunderground v.1.15,2013-01-27 17:15:00,
2013-01-27 09:20:00,34.6,27.8,29.87,SW,221,3.0,4.0,76,0.00,,,0.00,0,Wunderground v.1.15,2013-01-27 17:20:00,
2013-01-27 09:30:00,34.6,27.5,29.87,SW,221,5.0,8.0,75,0.00,,,0.00,0,Wunderground v.1.15,2013-01-27 17:30:00,
2013-01-27 09:40:00,34.3,26.9,29.87,NW,326,7.0,7.0,74,0.00,,,0.00,0,Wunderground v.1.15,2013-01-27 17:40:00,
2013-01-27 09:55:00,34.9,25.4,29.88,WSW,254,13.0,13.0,68,0.00,,,0.00,0,Wunderground v.1.15,2013-01-27 17:55:00,
2013-01-27 10:00:00,34.9,25.8,29.88,West,266,6.0,6.0,69,0.00,,,0.00,0,Wunderground v.1.15,2013-01-27 18:00:00,
2013-01-27 10:10:00,35.4,25.9,29.88,WSW,251,10.0,10.0,68,0.00,,,0.00,0,Wunderground v.1.15,2013-01-27 18:10:00,
2013-01-27 10:20:00,36.0,26.1,29.88,WSW,249,18.0,18.0,67,0.00,,,0.00,0,Wunderground v.1.15,2013-01-27 18:20:00,
2013-01-27 10:30:00,35.5,26.7,29.88,SSW,197,9.0,9.0,70,0.00,,,0.00,0,Wunderground v.1.15,2013-01-27 18:30:00,
2013-01-27 10:40:00,35.8,27.3,29.88,West,263,9.0,19.0,71,0.00,,,0.00,0,Wunderground v.1.15,2013-01-27 18:40:00,
2013-01-27 10:50:00,35.8,26.6,29.88,WSW,257,12.0,21.0,69,0.00,,,0.00,0,Wunderground v.1.15,2013-01-27 18:50:00,
2013-01-27 11:00:00,36.2,26.3,29.88,WSW,255,7.0,7.0,67,0.00,,,0.00,0,Wunderground v.1.15,2013-01-27 19:00:00,
2013-01-27 11:10:00,36.4,26.5,29.88,WSW,247,9.0,9.0,67,0.00,,,0.00,0,Wunderground v.1.15,2013-01-27 19:10:00,
2013-01-27 11:20:00,36.2,26.6,29.88,SW,236,12.0,12.0,68,0.00,,,0.00,0,Wunderground v.1.15,2013-01-27 19:20:00,
2013-01-27 11:30:00,36.0,27.2,29.88,WSW,258,13.0,13.0,70,0.00,,,0.00,0,Wunderground v.1.15,2013-01-27 19:30:00,
2013-01-27 11:40:00,35.9,27.4,29.88,SW,229,8.0,8.0,71,0.00,,,0.00,0,Wunderground v.1.15,2013-01-27 19:40:00,
2013-01-27 11:50:00,36.5,27.3,29.88,North,354,4.0,4.0,69,0.00,,,0.00,0,Wunderground v.1.15,2013-01-27 19:50:00,
2013-01-27 12:05:00,36.2,27.4,29.87,West,261,6.0,6.0,70,0.00,,,0.00,0,Wunderground v.1.15,2013-01-27 20:05:00,
2013-01-27 12:10:00,36.1,26.9,29.87,WSW,247,6.0,6.0,69,0.00,,,0.00,0,Wunderground v.1.15,2013-01-27 20:10:00,
2013-01-27 12:20:00,36.2,25.9,29.87,SW,235,13.0,13.0,66,0.00,,,0.00,0,Wunderground v.1.15,2013-01-27 20:20:00,
2013-01-27 12:35:00,35.3,25.4,29.87,WSW,257,11.0,11.0,67,0.00,,,0.00,0,Wunderground v.1.15,2013-01-27 20:35:00,
2013-01-27 12:40:00,35.2,25.3,29.86,SW,236,9.0,11.0,67,0.00,,,0.00,0,Wunderground v.1.15,2013-01-27 20:40:00,
2013-01-27 12:50:00,35.1,25.2,29.86,WSW,238,7.0,9.0,67,0.00,,,0.00,0,Wunderground v.1.15,2013-01-27 20:50:00,
2013-01-27 13:05:00,35.1,24.9,29.86,WSW,249,6.0,6.0,66,0.00,,,0.00,0,Wunderground v.1.15,2013-01-27 21:05:00,
2013-01-27 13:10:00,35.0,25.1,29.85,WSW,240,7.0,7.0,67,0.00,,,0.00,0,Wunderground v.1.15,2013-01-27 21:10:00,
2013-01-27 13:20:00,35.0,25.5,29.85,WSW,239,2.0,6.0,68,0.00,,,0.00,0,Wunderground v.1.15,2013-01-27 21:20:00,
2013-01-27 13:35:00,35.0,26.2,29.84,WSW,255,2.0,2.0,70,0.00,,,0.00,0,Wunderground v.1.15,2013-01-27 21:35:00,
2013-01-27 13:40:00,35.0,25.5,29.84,SW,227,4.0,4.0,68,0.00,,,0.00,0,Wunderground v.1.15,2013-01-27 21:40:00,
2013-01-27 13:50:00,35.1,25.6,29.84,WSW,239,1.0,1.0,68,0.00,,,0.00,0,Wunderground v.1.15,2013-01-27 21:50:00,
2013-01-27 14:00:00,35.2,25.3,29.84,WSW,251,5.0,5.0,67,0.00,,,0.00,0,Wunderground v.1.15,2013-01-27 22:00:00,
2013-01-27 14:10:00,35.2,25.3,29.83,WSW,250,6.0,6.0,67,0.00,,,0.00,0,Wunderground v.1.15,2013-01-27 22:10:00,
2013-01-27 14:20:00,35.2,25.7,29.83,WSW,241,6.0,6.0,68,0.00,,,0.00,0,Wunderground v.1.15,2013-01-27 22:20:00,
2013-01-27 14:30:00,35.2,26.0,29.83,West,259,6.0,11.0,69,0.00,,,0.00,0,Wunderground v.1.15,2013-01-27 22:30:00,
2013-01-27 14:40:00,35.4,26.2,29.83,WSW,245,8.0,9.0,69,0.00,,,0.00,0,Wunderground v.1.15,2013-01-27 22:40:00,
2013-01-27 14:50:00,35.5,26.0,29.83,WSW,251,5.0,5.0,68,0.00,,,0.00,0,Wunderground v.1.15,2013-01-27 22:50:00,
2013-01-27 15:00:00,35.6,25.7,29.82,WSW,252,6.0,6.0,67,0.00,,,0.00,0,Wunderground v.1.15,2013-01-27 23:00:00,
2013-01-27 15:10:00,35.7,26.2,29.83,WSW,253,3.0,3.0,68,0.00,,,0.00,0,Wunderground v.1.15,2013-01-27 23:10:00,
2013-01-27 15:20:00,35.8,26.3,29.83,WSW,256,5.0,5.0,68,0.00,,,0.00,0,Wunderground v.1.15,2013-01-27 23:20:00,
2013-01-27 15:35:00,35.7,26.5,29.83,WSW,239,12.0,12.0,69,0.00,,,0.00,0,Wunderground v.1.15,2013-01-27 23:35:00,
2013-01-27 15:40:00,35.7,26.9,29.83,WSW,255,11.0,12.0,70,0.00,,,0.00,0,Wunderground v.1.15,2013-01-27 23:40:00,
2013-01-27 15:50:00,35.5,27.0,29.83,West,259,11.0,11.0,71,0.00,,,0.00,0,Wunderground v.1.15,2013-01-27 23:50:00,
2013-01-27 16:00:00,35.4,27.3,29.83,WSW,253,10.0,10.0,72,0.00,,,0.00,0,Wunderground v.1.15,2013-01-28 00:00:00,
2013-01-27 16:10:00,35.5,27.0,29.83,West,260,7.0,7.0,71,0.00,,,0.00,0,Wunderground v.1.15,2013-01-28 00:10:00,
2013-01-27 16:20:00,35.6,27.1,29.83,WSW,251,8.0,8.0,71,0.00,,,0.00,0,Wunderground v.1.15,2013-01-28 00:20:00,
2013-01-27 16:30:00,35.5,27.0,29.83,WSW,248,10.0,10.0,71,0.00,,,0.00,0,Wunderground v.1.15,2013-01-28 00:30:00,
2013-01-27 16:40:00,35.3,27.5,29.83,SW,229,10.0,10.0,73,0.00,,,0.00,0,Wunderground v.1.15,2013-01-28 00:40:00,
2013-01-27 16:50:00,35.1,27.6,29.83,West,262,6.0,6.0,74,0.00,,,0.00,0,Wunderground v.1.15,2013-01-28 00:50:00,
2013-01-27 17:05:00,34.7,27.9,29.83,West,261,8.0,8.0,76,0.00,,,0.00,0,Wunderground v.1.15,2013-01-28 01:05:00,
2013-01-27 17:10:00,34.6,28.1,29.84,WSW,254,6.0,8.0,77,0.00,,,0.00,0,Wunderground v.1.15,2013-01-28 01:10:00,
2013-01-27 17:20:00,34.3,28.5,29.83,WSW,257,6.0,6.0,79,0.00,,,0.00,0,Wunderground v.1.15,2013-01-28 01:20:00,
2013-01-27 17:30:00,34.1,28.6,29.83,WSW,251,4.0,5.0,80,0.00,,,0.00,0,Wunderground v.1.15,2013-01-28 01:30:00,
2013-01-27 17:40:00,33.9,28.4,29.83,South,169,3.0,5.0,80,0.00,,,0.00,0,Wunderground v.1.15,2013-01-28 01:40:00,
2013-01-27 17:50:00,34.0,27.2,29.83,SSW,198,3.0,3.0,76,0.00,,,0.00,0,Wunderground v.1.15,2013-01-28 01:50:00,
2013-01-27 18:00:00,34.0,26.9,29.82,SSE,159,0.0,0.0,75,0.00,,,0.00,0,Wunderground v.1.15,2013-01-28 02:00:00,
2013-01-27 18:10:00,34.2,26.4,29.82,South,172,0.0,0.0,73,0.00,,,0.00,0,Wunderground v.1.15,2013-01-28 02:10:00,
2013-01-27 18:20:00,33.8,27.0,29.82,South,174,0.0,0.0,76,0.00,,,0.00,0,Wunderground v.1.15,2013-01-28 02:20:00,
2013-01-27 18:30:00,34.0,27.2,29.82,WSW,249,5.0,5.0,76,0.00,,,0.00,0,Wunderground v.1.15,2013-01-28 02:30:00,
2013-01-27 18:40:00,33.9,27.4,29.82,WNW,296,1.0,1.0,77,0.00,,,0.00,0,Wunderground v.1.15,2013-01-28 02:40:00,
2013-01-27 18:50:00,33.7,27.9,29.82,West,277,1.0,6.0,79,0.00,,,0.00,0,Wunderground v.1.15,2013-01-28 02:50:00,
2013-01-27 19:00:00,33.6,28.1,29.81,West,262,1.0,1.0,80,0.00,,,0.00,0,Wunderground v.1.15,2013-01-28 03:00:00,
2013-01-27 19:10:00,33.5,28.0,29.81,NNW,331,0.0,0.0,80,0.00,,,0.00,0,Wunderground v.1.15,2013-01-28 03:10:00,
2013-01-27 19:21:00,32.7,27.2,29.81,SSW,210,1.0,1.0,80,0.00,,,0.00,0,Wunderground v.1.15,2013-01-28 03:21:00,
2013-01-27 19:30:00,32.1,26.6,29.81,South,174,0.0,3.0,80,0.00,,,0.00,0,Wunderground v.1.15,2013-01-28 03:30:00,
2013-01-27 19:40:00,31.8,26.3,29.81,SSE,149,1.0,2.0,80,0.00,,,0.00,0,Wunderground v.1.15,2013-01-28 03:40:00,
2013-01-27 19:50:00,32.0,26.5,29.81,South,177,4.0,4.0,80,0.00,,,0.00,0,Wunderground v.1.15,2013-01-28 03:50:00,
2013-01-27 20:01:00,32.1,26.6,29.81,NE,52,0.0,0.0,80,0.00,,,0.00,0,Wunderground v.1.15,2013-01-28 04:01:00,
2013-01-27 20:10:00,31.8,26.6,29.81,SW,214,0.0,0.0,81,0.00,,,0.00,0,Wunderground v.1.15,2013-01-28 04:10:00,
2013-01-27 20:20:00,31.7,26.8,29.81,WSW,244,0.0,0.0,82,0.00,,,0.00,0,Wunderground v.1.15,2013-01-28 04:20:00,
2013-01-27 20:30:00,31.5,26.6,29.81,WSW,245,0.0,0.0,82,0.00,,,0.00,0,Wunderground v.1.15,2013-01-28 04:30:00,
2013-01-27 20:40:00,31.3,26.7,29.81,WSW,246,0.0,0.0,83,0.00,,,0.00,0,Wunderground v.1.15,2013-01-28 04:40:00,
2013-01-27 20:50:00,31.0,27.0,29.81,WSW,247,0.0,0.0,85,0.00,,,0.00,0,Wunderground v.1.15,2013-01-28 04:50:00,
2013-01-27 21:00:00,31.1,27.1,29.81,WSW,237,4.0,4.0,85,0.00,,,0.00,0,Wunderground v.1.15,2013-01-28 05:00:00,
2013-01-27 21:05:00,30.8,26.8,29.81,WSW,238,0.0,4.0,85,0.00,,,0.00,0,Wunderground v.1.15,2013-01-28 05:05:00,
2013-01-27 21:15:00,30.5,26.8,29.81,WSW,238,0.0,0.0,86,0.00,,,0.00,0,Wunderground v.1.15,2013-01-28 05:15:00,
2013-01-27 21:20:00,30.4,26.7,29.81,SW,236,1.0,1.0,86,0.00,,,0.00,0,Wunderground v.1.15,2013-01-28 05:20:00,
2013-01-27 21:30:00,30.3,26.9,29.81,SW,236,0.0,0.0,87,0.00,,,0.00,0,Wunderground v.1.15,2013-01-28 05:30:00,
2013-01-27 21:35:00,30.2,26.8,29.81,SW,236,0.0,0.0,87,0.00,,,0.00,0,Wunderground v.1.15,2013-01-28 05:35:00,
2013-01-27 21:40:00,30.2,27.1,29.81,SW,236,0.0,0.0,88,0.00,,,0.00,0,Wunderground v.1.15,2013-01-28 05:40:00,
2013-01-27 21:50:00,30.1,27.0,29.81,SW,236,0.0,0.0,88,0.00,,,0.00,0,Wunderground v.1.15,2013-01-28 05:50:00,
2013-01-27 22:05:00,30.0,26.9,29.81,SW,236,0.0,0.0,88,0.00,,,0.00,0,Wunderground v.1.15,2013-01-28 06:05:00,
2013-01-27 22:10:00,29.9,27.1,29.81,WSW,237,0.0,0.0,89,0.00,,,0.00,0,Wunderground v.1.15,2013-01-28 06:10:00,
2013-01-27 22:20:00,29.9,26.8,29.81,WSW,237,0.0,0.0,88,0.00,,,0.00,0,Wunderground v.1.15,2013-01-28 06:20:00,
2013-01-27 22:30:00,29.3,26.5,29.81,WSW,237,1.0,1.0,89,0.00,,,0.00,0,Wunderground v.1.15,2013-01-28 06:30:00,
2013-01-27 22:45:00,29.9,27.1,29.81,SW,224,0.0,0.0,89,0.00,,,0.00,0,Wunderground v.1.15,2013-01-28 06:45:00,
2013-01-27 22:50:00,29.8,27.2,29.81,SW,224,0.0,0.0,90,0.00,,,0.00,0,Wunderground v.1.15,2013-01-28 06:50:00,
2013-01-27 23:00:00,29.4,26.8,29.81,SW,224,0.0,0.0,90,0.00,,,0.00,0,Wunderground v.1.15,2013-01-28 07:00:00,
2013-01-27 23:10:00,28.9,26.6,29.81,SW,224,0.0,0.0,91,0.00,,,0.00,0,Wunderground v.1.15,2013-01-28 07:10:00,
2013-01-27 23:20:00,28.9,26.9,29.81,SW,223,0.0,0.0,92,0.00,,,0.00,0,Wunderground v.1.15,2013-01-28 07:20:00,
2013-01-27 23:30:00,28.1,26.1,29.81,SW,224,0.0,0.0,92,0.00,,,0.00,0,Wunderground v.1.15,2013-01-28 07:30:00,
2013-01-27 23:40:00,27.8,26.0,29.81,SW,224,0.0,0.0,93,0.00,,,0.00,0,Wunderground v.1.15,2013-01-28 07:40:00,
2013-01-27 23:50:00,27.8,26.0,29.80,SW,223,0.0,0.0,93,0.00,,,0.00,0,Wunderground v.1.15,2013-01-28 07:50:00,